Wynyard / W.B. Needham Field

Jump to: basic info | weather | frequencies | runways | comments

Related pages: nearby airports | nearby navaids | notams | map

Basic information (top)

Codes: CYYO
Location: lon 51.809888, lat -104.169788, elev 1,740 ft / 530 m msl
Status: small_airport
Scheduled airline service: no
Links: Wikipedia Mobile

Weather (top)

Current conditions for Yorkton Municipal Airport 72nm (133km) ESE (rec'd 2015/04/19 15:27Z):

CYQV 191527Z AUTO 33021G29KT 9SM -RA SCT016 BKN022 OVC029 03/01 A2995 RMK SLP163

Airport forecast for Yorkton Municipal Airport 72nm (133km) ESE (rec'd 2015/04/19 12:39Z):

TAF CYQV 191138Z 1912/1924 33015G25KT P6SM SCT012 BKN025 
      TEMPO 1912/1917 5SM -SHRA BR BKN012 OVC025 
      BECMG 1913/1915 34022G35KT 
     FM191700 34022G35KT P6SM BKN040 
      RMK FCST BASED ON AUTO OBS. NXT FCST BY 191800Z

Frequencies (top)

Verify before use: may be inaccurate or out of date.

ATF: 123.2 MHz (ATF)

Runways (top)

09/27: 3,000 x 75 ft (914 x 23 m) — paved — lighted

Latest comments (top)

Wynyard Airport renamed W.B. Needham Field: The Wynyard Airport was renamed "W.B. ... [read]

More... (top)

See also NOTAMs and nearby airports and navaids, or visit the Wynyard / W.B. Needham Field page at the main OurAirports website..